Location: Unspecified
(49.8670°N, 0.0000°E)
Time: 10:59:17
(UTC+00:00)

A-11 Canister half - Visible Passes

Search period start: 19 June 2019 00:00
Search period end: 29 June 2019 00:00
Orbit: 1525 x 1684 km, 47.3° (Epoch: 18 June)

Date Brightness Start Highest point End Pass type
(mag) Time Alt. Az. Time Alt. Az. Time Alt. Az.
22 Jun 10.5 02:50:19 10° S 02:56:46 21° SE 03:03:10 10° E visible
23 Jun 10.5 02:29:01 10° S 02:35:15 20° SE 02:41:24 10° E visible
24 Jun 10.5 02:07:45 10° S 02:13:44 19° SE 02:19:38 10° E visible
25 Jun 10.5 01:46:29 10° SSE 01:52:12 18° SE 01:57:50 10° E visible
26 Jun 10.5 01:25:17 10° SSE 01:30:41 17° SE 01:36:02 10° E visible
27 Jun 10.5 01:04:21 10° SSE 01:09:10 16° SE 01:14:10 10° E visible
27 Jun 9.6 03:03:26 10° SW 03:12:16 45° SSE 03:20:56 10° E visible
28 Jun 10.5 00:43:39 11° SSE 00:47:39 15° SE 00:52:17 10° E visible
28 Jun 9.6 02:41:55 10° SSW 02:50:42 43° SE 02:59:19 10° E visible
